Location: Kuffner-Sternwarte
(48.2130°N, 16.2960°E)
Time: 10:29:44
(UTC+02:00)

MOZHAYETS 4 - Visible Passes

Search period start: 16 June 2019 00:00
Search period end: 26 June 2019 00:00
Orbit: 661 x 681 km, 98.0° (Epoch: 16 June)

Date Brightness Start Highest point End Pass type
(mag) Time Alt. Az. Time Alt. Az. Time Alt. Az.
16 Jun 9.9 01:39:48 10° ESE 01:43:13 21° ENE 01:46:39 10° NNE visible
16 Jun 7.9 03:16:11 14° S 03:20:02 51° W 03:24:30 10° NNW visible
17 Jun 8.9 02:11:50 10° SE 02:16:05 40° ENE 02:20:20 10° N visible
17 Jun 8.9 03:49:41 11° SSW 03:53:20 25° W 03:57:08 10° NW visible
18 Jun 10.4 01:10:55 10° E 01:12:42 12° NE 01:14:29 10° NNE visible
18 Jun 7.8 02:44:57 12° SSE 02:49:05 81° ENE 02:53:40 10° NNW visible
19 Jun 9.9 01:41:55 10° ESE 01:45:25 22° ENE 01:48:55 10° NNE visible
19 Jun 8.0 03:18:27 14° S 03:22:15 49° W 03:26:41 10° NNW visible
20 Jun 8.8 02:14:00 10° SE 02:18:16 42° ENE 02:22:34 10° N visible
20 Jun 9.0 03:51:57 10° SSW 03:55:34 24° W 03:59:18 10° NW visible
21 Jun 10.4 01:12:55 10° E 01:14:53 13° NE 01:16:51 10° NNE visible
21 Jun 7.7 02:47:12 13° SSE 02:51:18 85° ENE 02:55:52 10° NNW visible
22 Jun 9.8 01:44:02 10° ESE 01:47:36 23° ENE 01:51:11 10° N visible
22 Jun 8.1 03:20:43 14° S 03:24:28 46° W 03:28:53 10° NNW visible
23 Jun 8.7 02:16:10 10° SE 02:20:29 44° ENE 02:24:48 10° N visible
23 Jun 9.0 03:54:13 10° SW 03:57:48 23° W 04:01:27 10° NW visible
24 Jun 10.4 01:14:55 10° E 01:17:04 13° ENE 01:19:11 10° NNE visible
24 Jun 7.7 02:49:29 13° SSE 02:53:30 89° ENE 02:58:05 10° NNW visible
25 Jun 9.7 01:46:09 10° ESE 01:49:47 24° ENE 01:53:26 10° N visible
25 Jun 8.1 03:23:00 14° SSW 03:26:41 44° W 03:31:04 10° NNW visible
